Location: Rometta
(44.2000°N, 10.0500°E)
Time: 22:41:17
(UTC+00:00)

Cosmos 990 Rocket - Pass Details

Date: 20 January 2021
Orbit: 748 x 768 km, 74.0° (Epoch: 04 March)

Event Time Altitude Azimuth Distance (km) Brightness Sun altitude
Rises 17:47:59 0° 176° (S) 3,213 7.3 -16.7°
Reaches altitude 10° 17:50:29 10° 168° (SSE) 2,289 6.5 -17.2°
Maximum altitude 17:55:13 37° 102° (ESE) 1,173 4.5 -18.0°
Enters shadow 17:56:17 33° 76° (ENE) 1,254 4.5 -18.2°
